Andrews, TX

5:57 PM CDT on May 23, 2017 (GMT -0500)
Andrews

Weather History for KE11 - November, 2012

Change the Weather History Date:

Wednesday, November 14, 2012

  Actual Average (KMAF) Record (KMAF)
Temperature  
Mean Temperature 45 °F -  
Max Temperature 61 °F 62 °F 85 °F (1933)
Min Temperature 29 °F 40 °F 13 °F (1976)
Degree Days  
Heating Degree Days 20    
Moisture  
Dew Point 23 °F    
Average Humidity 45    
Maximum Humidity 71    
Minimum Humidity 24    
Precipitation  
Precipitation 0.00 in - - ()
Sea Level Pressure  
Sea Level Pressure 30.29 in    
Wind  
Wind Speed 3 mph ()    
Max Wind Speed 9 mph    
Max Gust Speed -    
Visibility 10.0 miles    
Events      
Averages and records for this station are not official NWS values.
T = Trace of Precipitation, MM = Missing Value Source: Averaged Metar Reports

Daily Weather History Graph

Daily Weather History Graph

Search for Another Location

Airport or City:

Trip Planner

Search our weather history database for the weather conditions in past years. The results will help you decide how hot, cold, wet, or windy it might be!

Date:

Astronomy

Nov. 14, 2012 Rise Set
Actual Time 7:19 AM CST 5:49 PM CST
Civil Twilight 6:53 AM CST 6:15 PM CST
Nautical Twilight 6:23 AM CST 6:45 PM CST
Astronomical Twilight 5:54 AM CST 7:14 PM CST
Moon 8:07 AM CST (11/14) 6:44 PM CST (11/14)
Length of Visible Light 11h 22m
Length of Day
10h 30m
New Moon, 1% of the Moon is Illuminated
Nov 14
New Moon
Nov 20
First Quarter
Nov 28
Full
Dec 6
Last Quarter
Dec 13
New

Hourly Weather History & Observations

Time (CST) Temp. Windchill Dew Point Humidity Pressure Visibility Wind Dir Wind Speed Gust Speed Precip Events Conditions
12:15 AM 35.8 °F 31.9 °F 18.3 °F 49% 30.31 in 10.0 mi South 4.6 mph - N/A   Clear
12:35 AM 36.9 °F 33.1 °F 19.2 °F 49% 30.31 in 10.0 mi SSW 4.6 mph - N/A   Clear
12:55 AM 37.4 °F 33.8 °F 19.8 °F 49% 30.32 in 10.0 mi South 4.6 mph - N/A   Clear
1:15 AM 36.3 °F 33.7 °F 20.7 °F 53% 30.32 in 10.0 mi South 3.5 mph - N/A   Clear
1:35 AM 33.6 °F - 18.5 °F 54% 30.32 in 10.0 mi Calm Calm - N/A   Clear
1:55 AM 33.6 °F - 18.5 °F 54% 30.31 in 10.0 mi Calm Calm - N/A   Clear
2:15 AM 34.0 °F - 18.7 °F 54% 30.31 in 10.0 mi Calm Calm - N/A   Clear
2:35 AM 34.3 °F - 18.5 °F 52% 30.32 in 10.0 mi Calm Calm - N/A   Clear
2:55 AM 33.4 °F - 18.5 °F 54% 30.31 in 10.0 mi Calm Calm - N/A   Clear
3:15 AM 32.0 °F - 18.1 °F 57% 30.31 in 10.0 mi Calm Calm - N/A   Clear
3:35 AM 31.8 °F - 18.3 °F 57% 30.31 in 10.0 mi Calm Calm - N/A   Clear
3:55 AM 31.8 °F - 18.3 °F 57% 30.31 in 10.0 mi Calm Calm - N/A   Clear
4:15 AM 31.3 °F - 18.5 °F 59% 30.30 in 10.0 mi Calm Calm - N/A   Clear
4:35 AM 31.6 °F - 18.9 °F 59% 30.30 in 10.0 mi Calm Calm - N/A   Clear
4:55 AM 31.6 °F - 22.1 °F 68% 30.30 in 10.0 mi Calm Calm - N/A   Clear
5:15 AM 30.2 °F - 19.2 °F 64% 30.31 in 10.0 mi Calm Calm - N/A   Clear
5:35 AM 31.1 °F - 22.6 °F 71% 30.31 in 10.0 mi Calm Calm - N/A   Clear
5:55 AM 29.8 °F - 19.8 °F 66% 30.32 in 10.0 mi Calm Calm - N/A   Clear
6:15 AM 30.7 °F - 21.2 °F 68% 30.32 in 10.0 mi Calm Calm - N/A   Clear
6:35 AM 30.0 °F - 20.3 °F 67% 30.33 in 10.0 mi Calm Calm - N/A   Clear
6:55 AM 29.7 °F - 19.6 °F 66% 30.34 in 10.0 mi Calm Calm - N/A   Clear
7:15 AM 29.1 °F - 20.5 °F 70% 30.34 in 10.0 mi Calm Calm - N/A   Clear
7:35 AM 29.8 °F - 20.8 °F 69% 30.35 in 10.0 mi Calm Calm - N/A   Clear
7:55 AM 30.0 °F 26.5 °F 19.6 °F 65% 30.36 in 10.0 mi NNW 3.5 mph - N/A   Clear
8:15 AM 32.7 °F - 20.3 °F 60% 30.37 in 10.0 mi Calm Calm - N/A   Clear
8:35 AM 35.4 °F - 20.8 °F 55% 30.37 in 10.0 mi Calm Calm - N/A   Clear
8:55 AM 38.1 °F - 21.0 °F 50% 30.37 in 10.0 mi Calm Calm - N/A   Clear
9:15 AM 39.9 °F - 22.1 °F 49% 30.38 in 10.0 mi Calm Calm - N/A   Clear
9:35 AM 42.6 °F - 22.8 °F 46% 30.38 in 10.0 mi Calm Calm - N/A   Clear
9:55 AM 44.2 °F - 23.0 °F 43% 30.38 in 10.0 mi Calm Calm - N/A   Clear
10:15 AM 46.9 °F - 23.0 °F 39% 30.38 in 10.0 mi Calm Calm - N/A   Clear
10:35 AM 48.7 °F - 23.4 °F 37% 30.37 in 10.0 mi Calm Calm - N/A   Clear
10:55 AM 49.1 °F - 23.2 °F 36% 30.37 in 10.0 mi Calm Calm - N/A   Clear
11:15 AM 51.8 °F - 23.4 °F 33% 30.37 in 10.0 mi Calm Calm - N/A   Clear
11:35 AM 53.4 °F - 23.2 °F 31% 30.36 in 10.0 mi ESE 4.6 mph - N/A   Clear
11:55 AM 54.9 °F - 22.8 °F 29% 30.35 in 10.0 mi Calm Calm - N/A   Clear
12:15 PM 55.8 °F - 22.1 °F 27% 30.34 in 10.0 mi East 3.5 mph - N/A   Clear
12:35 PM 57.6 °F - 21.9 °F 25% 30.32 in 10.0 mi Calm Calm - N/A   Clear
12:55 PM 57.9 °F - 21.9 °F 25% 30.31 in 10.0 mi South 5.8 mph - N/A   Clear
1:15 PM 59.0 °F - 22.3 °F 24% 30.30 in 10.0 mi ESE 6.9 mph - N/A   Clear
1:35 PM 59.4 °F - 22.6 °F 24% 30.28 in 10.0 mi ESE 9.2 mph - N/A   Clear
1:55 PM 59.7 °F - 22.3 °F 24% 30.28 in 10.0 mi ESE 5.8 mph - N/A   Clear
2:15 PM 60.3 °F - 24.1 °F 25% 30.27 in 10.0 mi SE 8.1 mph - N/A   Clear
2:35 PM 60.1 °F - 24.8 °F 26% 30.26 in 10.0 mi SE 4.6 mph - N/A   Clear
2:55 PM 61.5 °F - 25.3 °F 25% 30.25 in 10.0 mi South 9.2 mph - N/A   Clear
3:15 PM 60.6 °F - 24.8 °F 25% 30.25 in 10.0 mi SSE 6.9 mph - N/A   Clear
3:35 PM 60.8 °F - 25.5 °F 26% 30.25 in 10.0 mi SE 6.9 mph - N/A   Clear
3:55 PM 60.8 °F - 25.5 °F 26% 30.24 in 10.0 mi South 6.9 mph - N/A   Clear
4:15 PM 60.3 °F - 25.5 °F 27% 30.24 in 10.0 mi SSE 6.9 mph - N/A   Clear
4:35 PM 59.9 °F - 25.7 °F 27% 30.24 in 10.0 mi South 8.1 mph - N/A   Clear
4:55 PM 59.0 °F - 26.2 °F 29% 30.23 in 10.0 mi SE 5.8 mph - N/A   Clear
5:15 PM 57.7 °F - 26.6 °F 30% 30.23 in 10.0 mi SE 5.8 mph - N/A   Clear
5:35 PM 57.2 °F - 26.2 °F 31% 30.23 in 10.0 mi SE 4.6 mph - N/A   Clear
5:55 PM 54.1 °F - 26.1 °F 34% 30.23 in 10.0 mi SE 4.6 mph - N/A   Clear
6:15 PM 51.8 °F - 26.2 °F 37% 30.23 in 10.0 mi SE 5.8 mph - N/A   Clear
6:35 PM 50.9 °F - 26.2 °F 38% 30.23 in 10.0 mi SSE 4.6 mph - N/A   Clear
6:55 PM 49.6 °F - 26.4 °F 41% 30.23 in 10.0 mi SSE 5.8 mph - N/A   Clear
7:15 PM 49.3 °F - 26.6 °F 41% 30.23 in 10.0 mi SSE 5.8 mph - N/A   Clear
7:35 PM 47.8 °F - 26.6 °F 44% 30.23 in 10.0 mi SSE 4.6 mph - N/A   Clear
7:55 PM 46.4 °F 43.5 °F 26.2 °F 45% 30.23 in 10.0 mi South 5.8 mph - N/A   Clear
8:55 PM 45.5 °F 43.2 °F 26.6 °F 48% 30.22 in 10.0 mi South 4.6 mph - N/A   Clear
9:15 PM 43.9 °F 40.5 °F 26.2 °F 50% 30.23 in 10.0 mi South 5.8 mph - N/A   Clear
9:35 PM 44.6 °F 42.2 °F 27.3 °F 51% 30.23 in 10.0 mi South 4.6 mph - N/A   Clear
9:55 PM 45.9 °F 42.3 °F 27.3 °F 48% 30.23 in 10.0 mi SSW 6.9 mph - N/A   Clear
10:15 PM 45.5 °F 41.3 °F 27.1 °F 49% 30.23 in 10.0 mi SSW 8.1 mph - N/A   Clear
10:35 PM 45.5 °F 41.8 °F 27.0 °F 48% 30.22 in 10.0 mi SSW 6.9 mph - N/A   Clear
10:55 PM 44.1 °F 40.1 °F 26.6 °F 50% 30.23 in 10.0 mi SSW 6.9 mph - N/A   Clear
11:15 PM 43.0 °F 38.8 °F 26.6 °F 52% 30.23 in 10.0 mi SW 6.9 mph - N/A   Clear
11:35 PM 42.1 °F 37.7 °F 26.6 °F 54% 30.22 in 10.0 mi SSW 6.9 mph - N/A   Clear
11:55 PM 41.2 °F 36.6 °F 26.6 °F 56% 30.21 in 10.0 mi SW 6.9 mph - N/A   Clear